• MPC Preparation (Info)

  • MPEC 2020-T140 : 2013 PF10

    The following Minor Planet Electronic Circular may be linked-to from your own Web pages, but must not otherwise be redistributed electronically.

    A form allowing access to any MPEC is at the bottom of this page.


    Read MPEC 2020-T139 Read MPEC 2020-T141


    M.P.E.C. 2020-T140                             Issued 2020 October 14, 20:27 UT
    
         The Minor Planet Electronic Circulars contain information on unusual
             minor planets and routine data on comets.  They are published
        on behalf of Division F of the International Astronomical Union by the
              Minor Planet Center, Smithsonian Astrophysical Observatory,
                              Cambridge, MA 02138, U.S.A.
    
                 Prepared using the Tamkin Foundation Computer Network
    
                                  MPC@CFA.HARVARD.EDU
                URL https://www.minorplanetcenter.net/    ISSN 1523-6714
    
                                    2013 PF10                                
    
    
                               Revision to MPEC 2013-P36                            
    
    Additional Observations:
         K13P10F KC2010 08 20.55213322 20 11.529+00 25 51.71         22.14GVET140F51
         K13P10F KC2010 08 21.46164222 18 39.172+00 08 31.31         22.17GVET140F51
         K13P10F  C2013 07 13.52448120 41 55.480+17 58 03.94         21.08GVET140F51
         K13P10F  C2013 07 13.53848720 41 53.467+17 57 44.70         20.64GVET140F51
         K13P10F  C2013 07 13.54792220 41 52.090+17 57 31.59         21.35GVET140F51
         K13P10F  C2013 07 13.54854320 41 52.015+17 57 30.76         21.15GVET140F51
         K13P10F  C2013 07 17.51175220 32 46.008+16 21 36.22         20.89GVET140F51
         K13P10F  C2013 07 17.51602420 32 45.405+16 21 29.70         21.13GVET140F51
         K13P10F  C2013 08 13.30055319 44 27.276+03 24 26.25         21.92GVET140F51
         K13P10F  C2013 08 13.31146919 44 26.500+03 24 07.53         21.41GVET140F51
         K13P10F  C2013 08 15.31671119 42 17.392+02 27 58.06         21.51GVET140F51
         K13P10F  C2013 08 15.32664919 42 16.745+02 27 41.51         21.55GVET140F51
         K13P10F  C2015 09 23.38908400 07 07.819-06 41 53.43         22.23GVET140F51
         K13P10F  C2015 09 23.40007500 07 06.746-06 42 05.93         20.91GVET140F51
         K13P10F  C2015 09 23.41108800 07 05.580-06 42 19.21         22.65GVET140F51
         K13P10F  C2018 08 13.52744723 12 41.024+02 49 05.44         21.34GVET140F51
         K13P10F  C2020 10 14.52692103 25 58.418-10 53 10.64         21.19wUET140F51
         K13P10F  C2020 10 14.53859503 25 57.850-10 53 34.57         21.18wUET140F51
         K13P10F  C2020 10 14.55028903 25 57.280-10 53 58.58         21.28wUET140F51
    
    Observer details:
    F51 Pan-STARRS 1, Haleakala.  Observers J. Bulger, K. Chambers, T. Lowe, A.
        Schultz, M. Willman.  Measurers S. Chastel, M. Huber, Y. Ramanjooloo, R.
        Wainscoat, R. Weryk, K. Chambers, T. de Boer, L. Denneau, J. Fairlamb, H.
        Flewelling, C.-C. Lin, E. Magnier.  1.8-m Ritchey-Chretien + CCD.
    
    First and last observations above in comparison with prediction:
    Residuals in seconds of arc (or two decimals in degrees), reference and Delta-T
    100820 F51 0.31- 0.00-    201014 F51 1.86- 0.16-    MPO271300   +1.81 days
    
    Orbital elements:
    2013 PF10                                                Earth MOID = 0.2873 AU
    Epoch 2020 Dec. 17.0 TT = JDT 2459200.5                 Veres
    M 317.55363              (2000.0)            P               Q
    n   0.62073431     Peri.  359.91335     -0.97855548     -0.19685418
    a   1.3610233      Node   168.19571     +0.18916398     -0.97534438
    e   0.5127333      Incl.   17.24411     +0.08152398     -0.09975855
    P   1.59           H   20.2           G   0.15           U   2
    Residuals in seconds of arc
    100820 F51  0.3-  0.1+    130802 K92  0.3-  0.6-    130813 F51  0.2+  0.3-
    100821 F51  0.2-  0.2-    130802 K92  0.0   0.2-    130813 568  0.0   0.1+
    130713 F51  0.0   0.1-    130803 J04  0.7-  0.2+    130813 568  0.0   0.1+
    130713 F51  0.1+  0.1-    130803 J04  0.1+  0.1+    130813 568  0.1-  0.1+
    130713 F51  0.1-  0.1-    130803 J04  0.1-  0.1-    130815 F51  0.0   0.1+
    130713 F51  0.1+  0.1-    130804 H21  0.1+  0.2-    130815 F51  0.1+  0.0
    130717 F51  0.0   0.2-    130804 H21  0.3+  0.0     150923 F51  0.0   0.5-
    130717 F51  0.1+  0.1-    130804 H21  0.2-  0.3-    150923 F51  0.7+  0.3+
    130802 F51  0.2-  0.0     130805 J04  0.1+  0.6-    150923 F51  0.0   0.2+
    130802 F51  0.1-  0.1-    130805 J04  0.5+  0.6-    180813 F51  0.2+  0.1-
    130802 F51  0.0   0.0     130806 J04  0.2-  0.0     201014 F51  0.1-  0.0
    130802 F51  0.3+  0.2+    130806 J04  0.2-  0.1-    201014 F51  0.1-  0.0
    130802 K92  0.0   0.3-    130813 F51  0.0   0.1-    201014 F51  0.1-  0.1-
    
    Ephemeris:
    2013 PF10                a,e,i = 1.36, 0.51, 17                  q = 0.6632
    Date    TT    R. A. (2000) Decl.     Delta      r    Elong.  Phase     V
    2020 09 14    03 24 44.0 +01 59 16   1.0199  1.7602   120.7    29.4    22.8
    ...
    2020 09 29    03 30 31.0 -03 12 06   0.8356  1.6836   132.6    26.0    22.1
    ...
    2020 10 07    03 29 46.5 -06 51 42   0.7503  1.6389   138.5    23.8    21.8
    ...
    2020 10 13    03 27 00.9 -10 01 31   0.6938  1.6036   142.2    22.4    21.5
    2020 10 14    03 26 21.0 -10 35 07   0.6850  1.5976   142.8    22.2    21.5
    2020 10 15    03 25 37.5 -11 09 15   0.6765  1.5915   143.2    22.0    21.4
    ...
    2020 10 21    03 19 56.6 -14 43 32   0.6296  1.5541   145.1    21.5    21.2
    ...
    2020 10 29    03 08 42.8 -19 45 32   0.5794  1.5018   144.2    22.8    21.0
    ...
    2020 11 13    02 37 11.1 -28 44 49   0.5219  1.3962   132.5    31.5    20.9
    
    A. U. Tomatic                (C) Copyright 2020 MPC           M.P.E.C. 2020-T140
    


    Read MPEC 2020-T139 Read MPEC 2020-T141


    MPEC number:

    Enter an MPEC number in one of the following forms:

    • 1997-B01 (the full form)
    • J97B01 (the packed version of the full form)
    • B01 (the abbreviated form)